| time (UTC) | temp C | wind direction | speed KPH | gust KPH | rain 1hr cm | rain 24hr cm | rain mn cm | humidity % | barometer mb |
| 20260509125537 | 8 | 235 | 3.2 | 4.8 | 0.00 | 0.41 | 0.41 | 96 | 1008.9 |
| 20260509125033 | 8 | 238 | 3.2 | 3.2 | 0.18 | 0.41 | 0.41 | 96 | 1008.8 |
| 20260509124530 | 8 | 241 | 4.8 | 12.9 | 0.18 | 0.41 | 0.41 | 96 | 1009.0 |
| 20260509124027 | 8 | 226 | 6.4 | 9.7 | 0.00 | 0.38 | 0.38 | 96 | 1008.9 |
| 20260509123525 | 8 | 219 | 11.3 | 14.5 | 0.13 | 0.38 | 0.38 | 96 | 1009.1 |
| 20260509123021 | 8 | 193 | 12.9 | 14.5 | 0.13 | 0.38 | 0.38 | 96 | 1009.1 |
| 20260509122518 | 8 | 171 | 6.4 | 14.5 | 0.00 | 0.36 | 0.36 | 96 | 1009.2 |
| 20260509122015 | 8 | 179 | 9.7 | 12.9 | 0.00 | 0.36 | 0.36 | 96 | 1009.3 |
| 20260509121511 | 8 | 184 | 6.4 | 12.9 | 0.18 | 0.36 | 0.36 | 96 | 1009.3 |
| 20260509121009 | 8 | 200 | 6.4 | 12.9 | 0.18 | 0.36 | 0.36 | 96 | 1009.3 |
| 20260509120507 | 7 | 203 | 6.4 | 12.9 | 0.18 | 0.33 | 0.33 | 96 | 1009.2 |
| 20260509120005 | 7 | 217 | 4.8 | 12.9 | 0.18 | 0.33 | 0.33 | 96 | 1009.5 |
| 20260509115502 | 7 | 152 | 4.8 | 12.9 | 0.00 | 0.30 | 0.30 | 96 | 1009.3 |
| 20260509114959 | 7 | 219 | 11.3 | 14.5 | 0.13 | 0.30 | 0.30 | 96 | 1009.4 |
| 20260509114458 | 7 | 219 | 3.2 | 9.7 | 0.13 | 0.30 | 0.30 | 96 | 1009.5 |
| 20260509113957 | 7 | 238 | 1.6 | 4.8 | 0.18 | 0.28 | 0.28 | 96 | 1009.3 |
| 20260509113454 | 7 | 178 | 4.8 | 4.8 | 0.30 | 0.25 | 0.25 | 96 | 1009.4 |
| 20260509112950 | 7 | 155 | 1.6 | 3.2 | 0.30 | 0.23 | 0.23 | 96 | 1009.4 |
| 20260509112448 | 7 | 176 | 6.4 | 6.4 | 0.13 | 0.20 | 0.20 | 96 | 1009.5 |
| 20260509111944 | 7 | 156 | 4.8 | 6.4 | 0.18 | 0.18 | 0.18 | 95 | 1009.6 |
| 20260509111442 | 7 | 203 | 3.2 | 3.2 | 0.18 | 0.18 | 0.18 | 95 | 1009.4 |
| 20260509110939 | 7 | 203 | 3.2 | 9.7 | 0.13 | 0.15 | 0.15 | 95 | 1009.5 |
| 20260509110435 | 7 | 145 | 4.8 | 11.3 | 0.13 | 0.15 | 0.15 | 95 | 1009.5 |
| 20260509105933 | 7 | 138 | 6.4 | 11.3 | 0.00 | 0.13 | 0.13 | 95 | 1009.4 |
| 20260509105431 | 7 | 149 | 3.2 | 6.4 | 0.18 | 0.13 | 0.13 | 95 | 1009.3 |
| 20260509104928 | 7 | 155 | 6.4 | 9.7 | 0.13 | 0.10 | 0.10 | 95 | 1009.2 |
| 20260509104425 | 7 | 219 | 3.2 | 6.4 | 0.30 | 0.10 | 0.10 | 94 | 1009.2 |
| 20260509103922 | 7 | 136 | 3.2 | 9.7 | 0.18 | 0.08 | 0.08 | 94 | 1009.0 |
| 20260509103419 | 7 | 128 | 4.8 | 9.7 | 0.13 | 0.05 | 0.05 | 94 | 1009.4 |
| 20260509102918 | 7 | 113 | 9.7 | 12.9 | 0.13 | 0.05 | 0.05 | 94 | 1009.1 |
| 20260509102415 | 7 | 147 | 8.0 | 12.9 | 0.18 | 0.03 | 0.03 | 93 | 1008.9 |
| 20260509101911 | 7 | 116 | 9.7 | 12.9 | 0.18 | 0.03 | 0.03 | 93 | 1009.0 |
| 20260509101407 | 7 | 140 | 11.3 | 17.7 | 0.00 | 0.00 | 0.00 | 93 | 1008.8 |
| 20260509100905 | 7 | 166 | 6.4 | 12.9 | 0.00 | 0.00 | 0.00 | 92 | 1008.8 |
| 20260509100401 | 7 | 134 | 8.0 | 12.9 | 0.00 | 0.00 | 0.00 | 91 | 1008.9 |
| 20260509095858 | 7 | 117 | 8.0 | 12.9 | 0.00 | 0.00 | 0.00 | 90 | 1009.1 |
| 20260509095356 | 7 | 198 | 6.4 | 9.7 | 0.00 | 0.00 | 0.00 | 90 | 1008.9 |
| 20260509094852 | 7 | 132 | 9.7 | 12.9 | 0.00 | 0.00 | 0.00 | 89 | 1009.0 |
| 20260509094349 | 7 | 142 | 9.7 | 11.3 | 0.00 | 0.00 | 0.00 | 88 | 1009.3 |
| 20260509093847 | 8 | 151 | 8.0 | 11.3 | 0.00 | 0.00 | 0.00 | 87 | 1009.1 |
| 20260509093344 | 8 | 176 | 8.0 | 16.1 | 0.00 | 0.00 | 0.00 | 88 | 1009.2 |
| 20260509092842 | 7 | 142 | 6.4 | 9.7 | 0.00 | 0.00 | 0.00 | 87 | 1009.2 |
| 20260509092340 | 7 | 140 | 4.8 | 6.4 | 0.00 | 0.00 | 0.00 | 87 | 1009.2 |
| 20260509091838 | 7 | 196 | 9.7 | 14.5 | 0.00 | 0.00 | 0.00 | 87 | 1009.1 |
| 20260509091334 | 8 | 206 | 8.0 | 11.3 | 0.00 | 0.00 | 0.00 | 86 | 1009.0 |
| 20260509090832 | 8 | 192 | 6.4 | 11.3 | 0.00 | 0.00 | 0.00 | 86 | 1009.0 |
| 20260509090329 | 8 | 198 | 8.0 | 14.5 | 0.00 | 0.00 | 0.00 | 86 | 1009.4 |
| 20260509085826 | 8 | 219 | 6.4 | 9.7 | 0.00 | 0.00 | 0.00 | 86 | 1009.0 |
| 20260509085323 | 8 | 202 | 3.2 | 4.8 | 0.00 | 0.00 | 0.00 | 86 | 1008.9 |
| 20260509084820 | 7 | 167 | 6.4 | 6.4 | 0.00 | 0.00 | 0.00 | 86 | 1009.1 |
| 20260509084317 | 7 | 178 | 3.2 | 9.7 | 0.00 | 0.00 | 0.00 | 86 | 1009.1 |
| 20260509083814 | 7 | 155 | 3.2 | 6.4 | 0.00 | 0.00 | 0.00 | 86 | 1008.8 |
| 20260509083311 | 7 | 170 | 3.2 | 6.4 | 0.00 | 0.00 | 0.00 | 85 | 1009.3 |
| 20260509082808 | 7 | 170 | 3.2 | 6.4 | 0.00 | 0.00 | 0.00 | 85 | 1009.3 |
| 20260509082307 | 7 | 204 | 6.4 | 9.7 | 0.00 | 0.00 | 0.00 | 86 | 1009.3 |
| 20260509081801 | 7 | 197 | 6.4 | 9.7 | 0.00 | 0.00 | 0.00 | 86 | 1009.5 |
| 20260509081259 | 7 | 198 | 4.8 | 4.8 | 0.00 | 0.00 | 0.00 | 85 | 1009.6 |
| 20260509080757 | 7 | 166 | 4.8 | 6.4 | 0.00 | 0.00 | 0.00 | 85 | 1009.3 |
| 20260509080254 | 7 | 162 | 4.8 | 4.8 | 0.00 | 0.00 | 0.00 | 85 | 1009.4 |
| 20260509075752 | 7 | 186 | 4.8 | 4.8 | 0.00 | 0.00 | 0.00 | 84 | 1009.5 |
| 20260509075249 | 7 | 172 | 4.8 | 6.4 | 0.00 | 0.00 | 0.00 | 84 | 1009.6 |
| 20260509074746 | 7 | 180 | 3.2 | 6.4 | 0.00 | 0.00 | 0.00 | 83 | 1009.7 |
| 20260509074244 | 7 | 156 | 4.8 | 6.4 | 0.00 | 0.00 | 0.00 | 82 | 1009.6 |
| 20260509073740 | 7 | 158 | 4.8 | 9.7 | 0.00 | 0.00 | 0.00 | 82 | 1009.9 |
| 20260509073236 | 7 | 161 | 3.2 | 4.8 | 0.00 | 0.00 | 0.00 | 81 | 1009.7 |
| 20260509072733 | 7 | 154 | 4.8 | 6.4 | 0.00 | 0.00 | 0.00 | 81 | 1010.0 |
| 20260509072230 | 7 | 158 | 3.2 | 6.4 | 0.00 | 0.00 | 0.00 | 79 | 1009.9 |
| 20260509071727 | 7 | 215 | 6.4 | 9.7 | 0.00 | 0.00 | 0.00 | 78 | 1009.6 |
| 20260509071224 | 7 | 148 | 4.8 | 6.4 | 0.00 | 0.00 | 0.00 | 77 | 1010.0 |
| 20260509070721 | 7 | 165 | 6.4 | 12.9 | 0.00 | 0.00 | 0.00 | 77 | 1009.9 |
| 20260509070217 | 7 | 177 | 6.4 | 9.7 | 0.00 | 0.00 | 0.00 | 75 | 1010.1 |
| 20260509065713 | 7 | 117 | 9.7 | 12.9 | 0.00 | 0.00 | 0.00 | 73 | 1010.2 |
| 20260509065209 | 7 | 137 | 8.0 | 11.3 | 0.00 | 0.00 | 0.00 | 71 | 1010.0 |
| 20260509064706 | 7 | 139 | 8.0 | 12.9 | 0.00 | 0.00 | 0.00 | 70 | 1010.2 |
| 20260509064204 | 7 | 181 | 8.0 | 9.7 | 0.00 | 0.00 | 0.00 | 70 | 1010.1 |
| 20260509063701 | 7 | 178 | 4.8 | 11.3 | 0.00 | 0.00 | 0.00 | 69 | 1010.2 |
| 20260509063157 | 7 | 141 | 6.4 | 9.7 | 0.00 | 0.00 | 0.00 | 68 | 1010.2 |
| 20260509062654 | 7 | 136 | 8.0 | 11.3 | 0.00 | 0.00 | 0.00 | 69 | 1010.5 |
| 20260509062152 | 7 | 148 | 8.0 | 9.7 | 0.00 | 0.00 | 0.00 | 68 | 1010.2 |
| 20260509061648 | 7 | 149 | 8.0 | 12.9 | 0.00 | 0.00 | 0.00 | 69 | 1010.4 |
| 20260509061146 | 7 | 150 | 4.8 | 4.8 | 0.00 | 0.00 | 0.00 | 68 | 1010.6 |
| 20260509060644 | 7 | 156 | 6.4 | 6.4 | 0.00 | 0.00 | 0.00 | 67 | 1010.7 |
| 20260509060139 | 7 | 198 | 1.6 | 3.2 | 0.00 | 0.00 | 0.00 | 65 | 1010.8 |
| 20260509055635 | 7 | 228 | 0.0 | 1.6 | 0.00 | 0.00 | 0.00 | 65 | 1010.7 |
| 20260509055131 | 7 | 190 | 0.0 | 1.6 | 0.00 | 0.00 | 0.00 | 66 | 1010.6 |
| 20260509054628 | 6 | 184 | 1.6 | 3.2 | 0.00 | 0.00 | 0.00 | 66 | 1010.6 |
| 20260509054125 | 6 | 161 | 3.2 | 4.8 | 0.00 | 0.00 | 0.00 | 67 | 1010.7 |
| 20260509053624 | 6 | 188 | 3.2 | 4.8 | 0.00 | 0.00 | 0.00 | 68 | 1011.1 |
| 20260509053120 | 6 | 155 | 3.2 | 3.2 | 0.00 | 0.00 | 0.00 | 68 | 1010.9 |
| 20260509052618 | 6 | 172 | 1.6 | 3.2 | 0.00 | 0.00 | 0.00 | 68 | 1011.0 |
| 20260509052116 | 6 | 183 | 1.6 | 3.2 | 0.00 | 0.00 | 0.00 | 67 | 1011.1 |
| 20260509051614 | 6 | 186 | 0.0 | 0.0 | 0.00 | 0.00 | 0.00 | 67 | 1011.1 |
| 20260509051110 | 6 | 283 | 0.0 | 0.0 | 0.00 | 0.00 | 0.00 | 66 | 1011.2 |
| 20260509050608 | 6 | 300 | 0.0 | 0.0 | 0.00 | 0.00 | 0.00 | 67 | 1010.9 |
| 20260509045601 | 6 | 69 | 0.0 | 0.0 | 0.00 | 0.00 | 0.00 | 69 | 1011.1 |
| 20260509045058 | 6 | 307 | 0.0 | 0.0 | 0.00 | 0.00 | 0.00 | 68 | 1010.9 |
| 20260509044556 | 6 | 258 | 0.0 | 0.0 | 0.00 | 0.00 | 0.00 | 67 | 1011.1 |
| 20260509044053 | 6 | 253 | 0.0 | 0.0 | 0.00 | 0.00 | 0.00 | 66 | 1010.9 |
| 20260509043549 | 6 | 96 | 0.0 | 0.0 | 0.00 | 0.00 | 0.00 | 66 | 1010.8 |
| 20260509043045 | 7 | 116 | 0.0 | 0.0 | 0.00 | 0.00 | 0.00 | 64 | 1010.9 |
| 20260509042541 | 7 | 128 | 0.0 | 3.2 | 0.00 | 0.00 | 0.00 | 62 | 1011.0 |
| 20260509042038 | 7 | 133 | 1.6 | 3.2 | 0.00 | 0.00 | 0.00 | 63 | 1011.1 |
| 20260509041534 | 7 | 112 | 3.2 | 4.8 | 0.00 | 0.00 | 0.00 | 64 | 1011.1 |
| 20260509041032 | 7 | 114 | 3.2 | 4.8 | 0.00 | 0.00 | 0.00 | 64 | 1011.0 |
| 20260509040530 | 7 | 120 | 3.2 | 6.4 | 0.00 | 0.00 | 0.00 | 63 | 1010.9 |
| 20260509040027 | 7 | 135 | 3.2 | 4.8 | 0.00 | 0.18 | 0.18 | 64 | 1011.1 |
| 20260509035524 | 7 | 119 | 6.4 | 6.4 | 0.00 | 0.18 | 0.18 | 64 | 1011.1 |
| 20260509035020 | 6 | 121 | 6.4 | 6.4 | 0.00 | 0.18 | 0.18 | 66 | 1011.0 |
| 20260509034519 | 6 | 111 | 4.8 | 4.8 | 0.00 | 0.18 | 0.18 | 67 | 1011.2 |
| 20260509034015 | 7 | 98 | 3.2 | 3.2 | 0.00 | 0.18 | 0.18 | 66 | 1011.3 |
| 20260509033512 | 7 | 91 | 1.6 | 4.8 | 0.00 | 0.18 | 0.18 | 65 | 1011.2 |
| 20260509033009 | 6 | 96 | 4.8 | 6.4 | 0.00 | 0.18 | 0.18 | 64 | 1011.1 |
| 20260509032506 | 7 | 95 | 4.8 | 4.8 | 0.00 | 0.18 | 0.18 | 65 | 1011.2 |
| 20260509032004 | 7 | 111 | 3.2 | 4.8 | 0.00 | 0.18 | 0.18 | 64 | 1011.6 |
| 20260509031501 | 7 | 105 | 6.4 | 6.4 | 0.00 | 0.18 | 0.18 | 63 | 1011.2 |
| 20260509030958 | 7 | 118 | 8.0 | 9.7 | 0.00 | 0.18 | 0.18 | 63 | 1011.6 |
| 20260509030456 | 6 | 91 | 3.2 | 3.2 | 0.00 | 0.18 | 0.18 | 65 | 1011.3 |
| 20260509025953 | 6 | 91 | 1.6 | 3.2 | 0.00 | 0.18 | 0.18 | 67 | 1011.4 |
| 20260509025449 | 7 | 93 | 3.2 | 4.8 | 0.00 | 0.18 | 0.18 | 66 | 1011.3 |
| 20260509024944 | 7 | 84 | 3.2 | 4.8 | 0.00 | 0.18 | 0.18 | 65 | 1011.3 |
| 20260509024440 | 7 | 95 | 8.0 | 9.7 | 0.00 | 0.18 | 0.18 | 64 | 1011.3 |
| 20260509023937 | 7 | 95 | 6.4 | 6.4 | 0.00 | 0.18 | 0.18 | 66 | 1011.2 |
| 20260509023434 | 7 | 86 | 3.2 | 4.8 | 0.00 | 0.18 | 0.18 | 66 | 1011.4 |
| 20260509022931 | 7 | 99 | 4.8 | 4.8 | 0.00 | 0.18 | 0.18 | 65 | 1011.4 |
| 20260509022428 | 7 | 123 | 4.8 | 4.8 | 0.00 | 0.18 | 0.18 | 66 | 1011.5 |
| 20260509021925 | 7 | 95 | 3.2 | 4.8 | 0.00 | 0.18 | 0.18 | 66 | 1011.4 |
| 20260509021422 | 7 | 107 | 1.6 | 3.2 | 0.00 | 0.18 | 0.18 | 65 | 1011.6 |
| 20260509020920 | 7 | 96 | 3.2 | 4.8 | 0.00 | 0.18 | 0.18 | 65 | 1011.7 |
| 20260509020418 | 7 | 91 | 3.2 | 3.2 | 0.00 | 0.18 | 0.18 | 64 | 1011.6 |
| 20260509015915 | 7 | 96 | 4.8 | 4.8 | 0.00 | 0.18 | 0.18 | 63 | 1011.6 |
| 20260509015414 | 7 | 105 | 3.2 | 4.8 | 0.00 | 0.18 | 0.18 | 63 | 1011.3 |
| 20260509014909 | 7 | 89 | 4.8 | 6.4 | 0.00 | 0.18 | 0.18 | 62 | 1011.5 |
| 20260509014406 | 7 | 108 | 1.6 | 4.8 | 0.00 | 0.18 | 0.18 | 60 | 1011.4 |
| 20260509013903 | 7 | 115 | 3.2 | 4.8 | 0.00 | 0.18 | 0.18 | 60 | 1011.3 |
| 20260509013400 | 8 | 86 | 3.2 | 4.8 | 0.00 | 0.18 | 0.18 | 59 | 1011.3 |
| 20260509012855 | 7 | 87 | 6.4 | 9.7 | 0.00 | 0.18 | 0.18 | 59 | 1011.3 |
| 20260509012352 | 7 | 77 | 3.2 | 4.8 | 0.00 | 0.18 | 0.18 | 58 | 1011.1 |
| 20260509011850 | 7 | 105 | 8.0 | 9.7 | 0.00 | 0.18 | 0.18 | 60 | 1011.2 |
| 20260509011347 | 7 | 87 | 4.8 | 6.4 | 0.00 | 0.18 | 0.18 | 58 | 1011.0 |
| 20260509010845 | 8 | 108 | 3.2 | 6.4 | 0.00 | 0.18 | 0.18 | 57 | 1011.0 |
| 20260509010342 | 7 | 86 | 4.8 | 4.8 | 0.00 | 0.18 | 0.18 | 59 | 1010.8 |
| 20260509005839 | 7 | 103 | 4.8 | 6.4 | 0.00 | 0.18 | 0.18 | 59 | 1011.0 |
| 20260509005337 | 8 | 91 | 3.2 | 6.4 | 0.00 | 0.18 | 0.18 | 56 | 1011.0 |
| 20260509004837 | 8 | 79 | 3.2 | 6.4 | 0.00 | 0.18 | 0.18 | 57 | 1010.9 |
| 20260509004333 | 8 | 94 | 6.4 | 6.4 | 0.00 | 0.18 | 0.18 | 56 | 1010.7 |
| 20260509003831 | 8 | 82 | 1.6 | 4.8 | 0.00 | 0.18 | 0.18 | 56 | 1010.7 |
| 20260509003329 | 8 | 69 | 3.2 | 3.2 | 0.00 | 0.18 | 0.18 | 55 | 1010.6 |
| 20260509002826 | 8 | 91 | 4.8 | 4.8 | 0.00 | 0.18 | 0.18 | 57 | 1010.5 |
| 20260509002323 | 8 | 93 | 4.8 | 6.4 | 0.00 | 0.18 | 0.18 | 56 | 1010.3 |
| 20260509001821 | 8 | 82 | 4.8 | 6.4 | 0.00 | 0.18 | 0.18 | 54 | 1010.5 |
| 20260509001316 | 8 | 124 | 3.2 | 4.8 | 0.00 | 0.18 | 0.18 | 56 | 1010.6 |
| 20260509000814 | 8 | 91 | 4.8 | 6.4 | 0.00 | 0.18 | 0.18 | 54 | 1010.5 |
| 20260509000312 | 8 | 81 | 4.8 | 9.7 | 0.00 | 0.18 | 0.18 | 54 | 1010.4 |
| 20260508235803 | 8 | 81 | 3.2 | 4.8 | 0.00 | 0.18 | 0.18 | 55 | 1010.3 |
| 20260508235300 | 9 | 97 | 3.2 | 4.8 | 0.00 | 0.18 | 0.18 | 53 | 1010.2 |
| 20260508234757 | 9 | 95 | 3.2 | 4.8 | 0.00 | 0.18 | 0.18 | 52 | 1010.4 |
| 20260508234253 | 10 | 93 | 3.2 | 4.8 | 0.00 | 0.18 | 0.18 | 52 | 1010.3 |
| 20260508233752 | 10 | 86 | 4.8 | 6.4 | 0.00 | 0.18 | 0.18 | 50 | 1010.2 |
| 20260508233250 | 10 | 86 | 1.6 | 4.8 | 0.00 | 0.18 | 0.18 | 50 | 1010.1 |
| 20260508232747 | 10 | 126 | 3.2 | 6.4 | 0.00 | 0.18 | 0.18 | 49 | 1010.2 |
| 20260508232243 | 10 | 114 | 1.6 | 3.2 | 0.00 | 0.18 | 0.18 | 48 | 1010.0 |
| 20260508231742 | 10 | 110 | 3.2 | 4.8 | 0.00 | 0.18 | 0.18 | 49 | 1010.0 |
| 20260508231238 | 11 | 93 | 1.6 | 6.4 | 0.00 | 0.18 | 0.18 | 48 | 1010.1 |
| 20260508230735 | 11 | 26 | 3.2 | 4.8 | 0.00 | 0.18 | 0.18 | 48 | 1009.9 |
| 20260508230231 | 11 | 12 | 0.0 | 6.4 | 0.00 | 0.18 | 0.18 | 48 | 1010.0 |
| 20260508225729 | 11 | 56 | 3.2 | 4.8 | 0.00 | 0.18 | 0.18 | 47 | 1010.0 |
| 20260508225225 | 11 | 69 | 3.2 | 4.8 | 0.00 | 0.18 | 0.18 | 48 | 1010.0 |
| 20260508224723 | 11 | 72 | 1.6 | 1.6 | 0.00 | 0.18 | 0.18 | 48 | 1010.3 |
| 20260508224220 | 11 | 356 | 4.8 | 6.4 | 0.00 | 0.18 | 0.18 | 46 | 1010.1 |
| 20260508223718 | 11 | 53 | 1.6 | 4.8 | 0.00 | 0.18 | 0.18 | 48 | 1010.2 |
| 20260508223215 | 11 | 42 | 3.2 | 4.8 | 0.00 | 0.18 | 0.18 | 50 | 1010.1 |
| 20260508222712 | 11 | 43 | 3.2 | 4.8 | 0.00 | 0.18 | 0.18 | 48 | 1010.0 |
| 20260508222210 | 12 | 272 | 3.2 | 9.7 | 0.00 | 0.18 | 0.18 | 48 | 1010.0 |
| 20260508221706 | 12 | 31 | 3.2 | 6.4 | 0.00 | 0.18 | 0.18 | 46 | 1010.0 |
| 20260508221201 | 12 | 250 | 0.0 | 3.2 | 0.00 | 0.18 | 0.18 | 46 | 1010.0 |
| 20260508220658 | 12 | 278 | 0.0 | 4.8 | 0.00 | 0.18 | 0.18 | 45 | 1010.1 |
| 20260508220155 | 12 | 299 | 9.7 | 14.5 | 0.00 | 0.18 | 0.18 | 45 | 1009.7 |
| 20260508215651 | 12 | 313 | 6.4 | 9.7 | 0.00 | 0.18 | 0.18 | 50 | 1010.0 |
| 20260508215148 | 13 | 291 | 4.8 | 16.1 | 0.00 | 0.18 | 0.18 | 44 | 1010.3 |
| 20260508214645 | 13 | 299 | 3.2 | 3.2 | 0.00 | 0.18 | 0.18 | 44 | 1010.1 |
| 20260508214142 | 12 | 344 | 1.6 | 6.4 | 0.00 | 0.18 | 0.18 | 42 | 1010.0 |
| 20260508213639 | 13 | 244 | 6.4 | 11.3 | 0.00 | 0.18 | 0.18 | 44 | 1010.2 |
| 20260508213135 | 12 | 300 | 6.4 | 14.5 | 0.00 | 0.18 | 0.18 | 43 | 1010.2 |
| 20260508212632 | 12 | 303 | 3.2 | 9.7 | 0.00 | 0.18 | 0.18 | 42 | 1010.3 |
| 20260508212128 | 12 | 5 | 4.8 | 11.3 | 0.00 | 0.18 | 0.18 | 43 | 1010.4 |
| 20260508211623 | 13 | 297 | 6.4 | 9.7 | 0.00 | 0.18 | 0.18 | 43 | 1010.3 |
| 20260508211120 | 12 | 289 | 1.6 | 6.4 | 0.00 | 0.18 | 0.18 | 48 | 1010.3 |
| 20260508210617 | 12 | 271 | 1.6 | 9.7 | 0.00 | 0.18 | 0.18 | 44 | 1010.4 |
| 20260508210114 | 11 | 294 | 3.2 | 6.4 | 0.00 | 0.18 | 0.18 | 47 | 1010.5 |
| 20260508205611 | 11 | 289 | 6.4 | 6.4 | 0.00 | 0.18 | 0.18 | 46 | 1010.5 |
| 20260508205108 | 11 | 235 | 1.6 | 3.2 | 0.00 | 0.18 | 0.18 | 48 | 1010.6 |
| 20260508204604 | 11 | 262 | 4.8 | 6.4 | 0.00 | 0.18 | 0.18 | 48 | 1010.3 |
| 20260508204100 | 11 | 316 | 8.0 | 9.7 | 0.00 | 0.18 | 0.18 | 49 | 1010.5 |
| 20260508203556 | 11 | 302 | 4.8 | 6.4 | 0.00 | 0.18 | 0.18 | 46 | 1010.5 |
| 20260508203052 | 12 | 307 | 6.4 | 11.3 | 0.00 | 0.18 | 0.18 | 45 | 1010.5 |
| 20260508202549 | 12 | 246 | 4.8 | 4.8 | 0.00 | 0.18 | 0.18 | 48 | 1010.6 |
| 20260508202047 | 11 | 206 | 3.2 | 11.3 | 0.00 | 0.18 | 0.18 | 46 | 1010.6 |
| 20260508201543 | 11 | 296 | 6.4 | 11.3 | 0.00 | 0.18 | 0.18 | 50 | 1010.8 |
| 20260508201039 | 11 | 302 | 6.4 | 11.3 | 0.00 | 0.18 | 0.18 | 48 | 1010.7 |
| 20260508200537 | 11 | 323 | 1.6 | 6.4 | 0.00 | 0.18 | 0.18 | 52 | 1010.8 |
| 20260508200032 | 10 | 17 | 3.2 | 9.7 | 0.00 | 0.18 | 0.18 | 49 | 1010.8 |
| 20260508195529 | 11 | 302 | 8.0 | 12.9 | 0.00 | 0.18 | 0.18 | 46 | 1010.9 |
| 20260508195025 | 11 | 321 | 11.3 | 17.7 | 0.00 | 0.18 | 0.18 | 46 | 1010.9 |
| 20260508194523 | 11 | 320 | 14.5 | 27.4 | 0.00 | 0.18 | 0.18 | 46 | 1011.0 |
| 20260508194020 | 12 | 320 | 3.2 | 6.4 | 0.00 | 0.18 | 0.18 | 44 | 1011.1 |
| 20260508193516 | 11 | 291 | 6.4 | 12.9 | 0.00 | 0.18 | 0.18 | 47 | 1011.1 |
| 20260508193013 | 11 | 311 | 11.3 | 17.7 | 0.00 | 0.18 | 0.18 | 46 | 1011.2 |
| 20260508192509 | 12 | 286 | 9.7 | 11.3 | 0.00 | 0.18 | 0.18 | 48 | 1011.1 |
| 20260508192007 | 11 | 356 | 3.2 | 6.4 | 0.00 | 0.18 | 0.18 | 51 | 1011.2 |
| 20260508191503 | 12 | 269 | 9.7 | 11.3 | 0.00 | 0.18 | 0.18 | 48 | 1011.0 |
| 20260508191000 | 11 | 287 | 4.8 | 11.3 | 0.00 | 0.18 | 0.18 | 53 | 1011.4 |
| 20260508190458 | 11 | 288 | 9.7 | 17.7 | 0.00 | 0.18 | 0.18 | 49 | 1011.4 |
| 20260508185953 | 11 | 303 | 6.4 | 12.9 | 0.00 | 0.18 | 0.18 | 48 | 1011.5 |
| 20260508185451 | 11 | 288 | 1.6 | 6.4 | 0.00 | 0.18 | 0.18 | 51 | 1011.3 |
| 20260508184948 | 11 | 297 | 9.7 | 17.7 | 0.00 | 0.18 | 0.18 | 52 | 1011.3 |
| 20260508184446 | 11 | 208 | 4.8 | 14.5 | 0.00 | 0.18 | 0.18 | 55 | 1011.6 |
| 20260508183942 | 11 | 299 | 6.4 | 11.3 | 0.00 | 0.18 | 0.18 | 54 | 1011.6 |
| 20260508183439 | 11 | 281 | 3.2 | 4.8 | 0.00 | 0.18 | 0.18 | 55 | 1011.5 |
| 20260508182934 | 10 | 324 | 4.8 | 11.3 | 0.00 | 0.18 | 0.18 | 55 | 1011.5 |
| 20260508182432 | 10 | 323 | 8.0 | 14.5 | 0.00 | 0.18 | 0.18 | 58 | 1011.7 |
| 20260508181931 | 10 | 305 | 6.4 | 12.9 | 0.00 | 0.18 | 0.18 | 57 | 1011.8 |
| 20260508181429 | 10 | 294 | 11.3 | 14.5 | 0.00 | 0.18 | 0.18 | 57 | 1011.8 |
| 20260508180926 | 10 | 298 | 9.7 | 12.9 | 0.00 | 0.18 | 0.18 | 57 | 1011.8 |
| 20260508180423 | 10 | 302 | 6.4 | 16.1 | 0.00 | 0.18 | 0.18 | 57 | 1011.8 |
| 20260508175919 | 10 | 305 | 16.1 | 16.1 | 0.00 | 0.18 | 0.18 | 57 | 1012.2 |
| 20260508175416 | 10 | 292 | 6.4 | 14.5 | 0.00 | 0.18 | 0.18 | 58 | 1012.0 |
| 20260508174914 | 10 | 286 | 14.5 | 20.9 | 0.00 | 0.18 | 0.18 | 60 | 1012.2 |
| 20260508174411 | 9 | 310 | 11.3 | 16.1 | 0.00 | 0.18 | 0.18 | 63 | 1012.4 |
| 20260508173907 | 8 | 244 | 6.4 | 22.5 | 0.00 | 0.18 | 0.18 | 63 | 1012.2 |
| 20260508173405 | 10 | 225 | 11.3 | 14.5 | 0.00 | 0.18 | 0.18 | 66 | 1012.4 |
| 20260508172900 | 9 | 203 | 9.7 | 14.5 | 0.00 | 0.18 | 0.18 | 67 | 1012.4 |
| 20260508172358 | 8 | 325 | 6.4 | 20.9 | 0.00 | 0.18 | 0.18 | 69 | 1012.5 |
| 20260508171854 | 8 | 250 | 4.8 | 17.7 | 0.00 | 0.18 | 0.18 | 69 | 1012.3 |
| 20260508171350 | 8 | 232 | 12.9 | 14.5 | 0.00 | 0.18 | 0.18 | 73 | 1012.4 |
| 20260508170847 | 8 | 248 | 9.7 | 12.9 | 0.00 | 0.18 | 0.18 | 69 | 1012.8 |
| 20260508170345 | 8 | 328 | 8.0 | 12.9 | 0.00 | 0.18 | 0.18 | 73 | 1012.6 |
| 20260508165841 | 7 | 239 | 6.4 | 11.3 | 0.00 | 0.18 | 0.18 | 74 | 1012.5 |
| 20260508165339 | 7 | 200 | 3.2 | 11.3 | 0.00 | 0.18 | 0.18 | 77 | 1012.6 |
| 20260508164834 | 7 | 275 | 4.8 | 11.3 | 0.00 | 0.18 | 0.18 | 70 | 1012.6 |
| 20260508164332 | 7 | 329 | 6.4 | 12.9 | 0.00 | 0.18 | 0.18 | 78 | 1012.8 |
| 20260508163830 | 7 | 221 | 1.6 | 14.5 | 0.00 | 0.18 | 0.18 | 75 | 1012.8 |
| 20260508163327 | 7 | 287 | 6.4 | 14.5 | 0.00 | 0.18 | 0.18 | 75 | 1012.8 |
| 20260508162822 | 7 | 191 | 4.8 | 14.5 | 0.00 | 0.18 | 0.18 | 75 | 1013.0 |
| 20260508162319 | 7 | 271 | 9.7 | 12.9 | 0.00 | 0.18 | 0.18 | 74 | 1012.9 |
| 20260508161817 | 7 | 216 | 12.9 | 16.1 | 0.00 | 0.18 | 0.18 | 75 | 1013.0 |
| 20260508161314 | 7 | 232 | 6.4 | 9.7 | 0.00 | 0.18 | 0.18 | 72 | 1012.8 |
| 20260508160811 | 7 | 231 | 4.8 | 4.8 | 0.00 | 0.18 | 0.18 | 75 | 1012.9 |
| 20260508160310 | 7 | 221 | 3.2 | 4.8 | 0.00 | 0.18 | 0.18 | 76 | 1012.8 |
| 20260508155806 | 7 | 337 | 0.0 | 1.6 | 0.00 | 0.18 | 0.18 | 76 | 1013.0 |
| 20260508155306 | 6 | 238 | 3.2 | 4.8 | 0.00 | 0.18 | 0.18 | 78 | 1012.9 |
| 20260508154759 | 6 | 222 | 3.2 | 4.8 | 0.00 | 0.18 | 0.18 | 81 | 1013.1 |
| 20260508154258 | 5 | 228 | 1.6 | 3.2 | 0.00 | 0.18 | 0.18 | 83 | 1012.7 |
| 20260508153753 | 5 | 312 | 3.2 | 3.2 | 0.00 | 0.18 | 0.18 | 84 | 1012.9 |
| 20260508153251 | 5 | 282 | 1.6 | 6.4 | 0.00 | 0.18 | 0.18 | 88 | 1012.9 |
| 20260508152747 | 6 | 330 | 3.2 | 9.7 | 0.00 | 0.18 | 0.18 | 88 | 1012.7 |
| 20260508152243 | 5 | 232 | 0.0 | 3.2 | 0.00 | 0.18 | 0.18 | 89 | 1012.7 |
| 20260508151740 | 4 | 253 | 0.0 | 1.6 | 0.00 | 0.18 | 0.18 | 91 | 1012.9 |
| 20260508151237 | 5 | 316 | 6.4 | 9.7 | 0.00 | 0.18 | 0.18 | 91 | 1013.0 |
| 20260508150733 | 3 | 296 | 1.6 | 3.2 | 0.00 | 0.18 | 0.18 | 92 | 1012.8 |
| 20260508150230 | 3 | 261 | 3.2 | 4.8 | 0.00 | 0.18 | 0.18 | 91 | 1012.8 |
| 20260508145726 | 4 | 293 | 1.6 | 6.4 | 0.00 | 0.18 | 0.18 | 91 | 1012.7 |
| 20260508145222 | 4 | 333 | 1.6 | 3.2 | 0.00 | 0.18 | 0.18 | 94 | 1012.8 |
| 20260508144720 | 4 | 251 | 3.2 | 4.8 | 0.00 | 0.18 | 0.18 | 93 | 1012.8 |
| 20260508144218 | 3 | 284 | 3.2 | 9.7 | 0.00 | 0.18 | 0.18 | 94 | 1012.8 |
| 20260508143715 | 3 | 257 | 0.0 | 1.6 | 0.00 | 0.18 | 0.18 | 95 | 1012.6 |
| 20260508143212 | 2 | 271 | 0.0 | 1.6 | 0.00 | 0.18 | 0.18 | 95 | 1012.6 |
| 20260508142708 | 2 | 265 | 0.0 | 3.2 | 0.00 | 0.18 | 0.18 | 95 | 1012.8 |
| 20260508142205 | 2 | 334 | 3.2 | 3.2 | 0.00 | 0.18 | 0.18 | 95 | 1012.8 |
| 20260508141701 | 2 | 96 | 1.6 | 3.2 | 0.00 | 0.18 | 0.18 | 95 | 1012.7 |
| 20260508141159 | 2 | 96 | 1.6 | 3.2 | 0.00 | 0.18 | 0.18 | 95 | 1012.3 |
| 20260508140656 | 1 | 109 | 4.8 | 4.8 | 0.00 | 0.18 | 0.18 | 94 | 1012.5 |
| 20260508140153 | 1 | 61 | 3.2 | 3.2 | 0.18 | 0.18 | 0.18 | 94 | 1012.9 |
| 20260508135649 | 1 | 315 | 0.0 | 1.6 | 0.00 | 0.15 | 0.15 | 94 | 1013.0 |
| 20260508135144 | 1 | 325 | 1.6 | 3.2 | 0.00 | 0.15 | 0.15 | 93 | 1013.0 |
| 20260508134641 | 2 | 315 | 3.2 | 4.8 | 0.00 | 0.15 | 0.15 | 93 | 1013.0 |
| 20260508134138 | 2 | 309 | 3.2 | 4.8 | 0.00 | 0.15 | 0.15 | 93 | 1012.6 |
| 20260508133635 | 2 | 296 | 1.6 | 3.2 | 0.00 | 0.15 | 0.15 | 93 | 1012.5 |
| 20260508133132 | 2 | 301 | 1.6 | 1.6 | 0.00 | 0.15 | 0.15 | 93 | 1012.2 |
| 20260508132630 | 2 | 291 | 1.6 | 1.6 | 0.13 | 0.15 | 0.15 | 93 | 1012.5 |
| 20260508132127 | 2 | 269 | 1.6 | 1.6 | 0.13 | 0.15 | 0.15 | 92 | 1012.5 |
| 20260508131622 | 2 | 331 | 1.6 | 3.2 | 0.18 | 0.13 | 0.13 | 92 | 1012.6 |
| 20260508131119 | 2 | 312 | 3.2 | 4.8 | 0.18 | 0.13 | 0.13 | 92 | 1012.6 |
| 20260508130616 | 2 | 290 | 1.6 | 4.8 | 0.00 | 0.10 | 0.10 | 91 | 1012.7 |
| 20260508130113 | 2 | 278 | 1.6 | 3.2 | 0.13 | 0.10 | 0.10 | 91 | 1012.5 |